,,PA_Meas_PMT16A,,PR_Meas_QMR101_102,,RH_Meas_QMH101,,SR_Meas_QMS101,,TA_Meas_QMH101,,GenWind,,GenWind,
time,status,PA,status,PR,status,RH,status,SR,status,TA,status,DirAvg,status,SpdAvg,
2016-09-08, 00:22:05,VALID,917.78,VALID,0,VALID,85.7787,VALID,49.208,VALID,22.1184,VALID,11,VALID,0,
2016-09-08, 00:23:05,VALID,917.772,VALID,0,VALID,86.2361,VALID,49.3155,VALID,22.0989,VALID,10,VALID,0,
2016-09-08, 00:24:05,VALID,917.761,VALID,0,VALID,86.9756,VALID,49.6378,VALID,22.1005,VALID,10,VALID,0,
2016-09-08, 00:25:05,VALID,917.763,VALID,0,VALID,85.6415,VALID,49.6378,VALID,22.081,VALID,10,VALID,0,
2016-09-08, 00:26:05,VALID,917.794,VALID,0,VALID,83.4917,VALID,49.6378,VALID,22.0403,VALID,10,VALID,0,
2016-09-08, 00:27:05,VALID,917.734,VALID,0,VALID,84.4598,VALID,49.208,VALID,22.042,VALID,10,VALID,0,
2016-09-08, 00:28:05,VALID,917.877,VALID,0,VALID,84.1168,VALID,48.9932,VALID,22.042,VALID,10,VALID,0,
2016-09-08, 00:30:04,VALID,917.823,VALID,0,VALID,84.376,VALID,48.3485,VALID,22.1005,VALID,10,VALID,0,
2016-09-08, 00:31:04,VALID,917.682,VALID,0,VALID,83.3925,VALID,47.9188,VALID,22.1005,VALID,10,VALID,0,
2016-09-08, 00:32:04,VALID,917.82,VALID,0,VALID,83.4688,VALID,47.1667,VALID,22.0827,VALID,11,VALID,0,
2016-09-08, 00:33:04,VALID,917.796,VALID,0,VALID,84.8486,VALID,45.8774,VALID,22.1022,VALID,10,VALID,0,
2016-09-08, 00:34:04,VALID,918.594,VALID,0,VALID,83.3011,VALID,44.2658,VALID,22.081,VALID,11,VALID,0,
2016-09-08, 14:31:04,VALID,920.188,VALID,0,INVALID,117.18,VALID,113.028,VALID,19.5468,VALID,126,VALID,0,
2016-09-08, 14:32:04,VALID,920.211,VALID,0,INVALID,117.225,VALID,115.714,VALID,19.5078,VALID,125,VALID,0.165625,
2016-09-08, 14:33:04,VALID,920.232,VALID,0,INVALID,117.187,VALID,117.541,VALID,19.5078,VALID,114,VALID,0,
2016-09-08, 14:34:04,VALID,920.221,VALID,0,INVALID,117.21,VALID,118.937,VALID,19.5468,VALID,123,VALID,0,
2016-09-08, 14:35:04,VALID,920.24,VALID,0,INVALID,117.058,VALID,119.904,VALID,19.6068,VALID,125,VALID,0,
2016-09-08, 14:36:04,VALID,920.235,VALID,0,INVALID,117.027,VALID,120.334,VALID,19.6653,VALID,126,VALID,0,
2016-09-08, 14:37:04,VALID,920.232,VALID,0,INVALID,117.218,VALID,120.012,VALID,19.7223,VALID,115,VALID,0,
2016-09-08, 14:38:04,VALID,920.236,VALID,0,INVALID,117.279,VALID,119.045,VALID,19.8003,VALID,105,VALID,0,
2016-09-08, 14:39:04,VALID,920.261,VALID,0,INVALID,117.347,VALID,117.756,VALID,19.8588,VALID,106,VALID,0,
2016-09-08, 14:40:04,VALID,920.281,VALID,0,INVALID,117.233,VALID,117.003,VALID,19.9173,VALID,123,VALID,0,
2016-09-08, 14:41:04,VALID,920.283,VALID,0,INVALID,117.096,VALID,116.681,VALID,19.9953,VALID,123,VALID,0,
2016-09-08, 14:42:04,VALID,920.325,VALID,0,INVALID,116.562,VALID,116.466,VALID,20.0148,VALID,123,VALID,0,
2016-09-08, 14:43:04,VALID,920.361,VALID,0,INVALID,116.288,VALID,116.574,VALID,20.1123,VALID,123,VALID,0,
2016-09-08, 14:44:04,VALID,920.38,VALID,0,INVALID,116.227,VALID,117.648,VALID,20.2098,VALID,123,VALID,0,
2016-09-08, 14:45:04,VALID,920.369,VALID,0,INVALID,115.03,VALID,118.83,VALID,20.2489,VALID,123,VALID,0,
2016-09-08, 14:46:04,VALID,920.339,VALID,0,INVALID,113.955,VALID,119.904,VALID,20.3089,VALID,102,VALID,0,
2016-09-08, 14:47:04,VALID,920.332,VALID,0,INVALID,112.27,VALID,121.194,VALID,20.3269,VALID,102,VALID,0,
2016-09-08, 14:48:04,VALID,920.375,VALID,0,INVALID,112.125,VALID,124.095,VALID,20.4634,VALID,102,VALID,0,
2016-09-08, 14:49:04,VALID,920.372,VALID,0,VALID,101.079,VALID,127.962,VALID,20.5219,VALID,102,VALID,0,
2016-09-08, 14:50:04,VALID,920.373,VALID,0,INVALID,110.151,VALID,132.045,VALID,20.6585,VALID,201,VALID,0,
2016-09-08, 14:51:04,VALID,920.332,VALID,0,VALID,104,VALID,136.128,VALID,20.5999,VALID,201,VALID,0,
2016-09-08, 14:52:04,VALID,920.378,VALID,0,VALID,84.2159,VALID,139.566,VALID,20.6194,VALID,236,VALID,0,
2016-09-08, 14:53:04,VALID,920.378,VALID,0,VALID,92.9294,VALID,142.682,VALID,20.7739,VALID,246,VALID,0,
2016-09-08, 14:54:04,VALID,920.401,VALID,0,VALID,104,VALID,145.583,VALID,20.8714,VALID,245,VALID,0,
2016-09-08, 14:55:04,VALID,920.379,VALID,0,VALID,102.931,VALID,148.376,VALID,20.9706,VALID,246,VALID,0,
2016-09-08, 14:56:04,VALID,920.42,VALID,0,VALID,104,VALID,150.955,VALID,21.047,VALID,248,VALID,0,
2016-09-08, 14:57:04,VALID,920.44,VALID,0,INVALID,109.526,VALID,153.641,VALID,21.008,VALID,252,VALID,0,
2016-09-08, 14:58:04,VALID,920.467,VALID,0,VALID,104,VALID,156.757,VALID,20.8535,VALID,252,VALID,0,
2016-09-08, 14:59:04,VALID,920.479,VALID,0,INVALID,111.043,VALID,160.302,VALID,20.8129,VALID,254,VALID,0,
2016-09-08, 15:00:04,VALID,920.51,VALID,0,INVALID,111.889,VALID,164.063,VALID,20.8129,VALID,254,VALID,0,
2016-09-08, 15:01:04,VALID,920.511,VALID,0,INVALID,112.194,VALID,168.038,VALID,20.873,VALID,254,VALID,0,
2016-09-08, 15:02:04,VALID,920.572,VALID,0,VALID,104,VALID,172.443,VALID,20.9527,VALID,315,VALID,0,
2016-09-08, 15:03:04,VALID,920.563,VALID,0,VALID,104,VALID,176.848,VALID,20.9316,VALID,342,VALID,0,
2016-09-08, 15:04:04,VALID,920.583,VALID,0,VALID,90.2994,VALID,181.79,VALID,20.9316,VALID,340,VALID,0,
2016-09-08, 15:05:04,VALID,920.6,VALID,0,VALID,92.2967,VALID,187.055,VALID,21.0096,VALID,341,VALID,0,
2016-09-08, 15:06:04,VALID,920.593,VALID,0,VALID,104,VALID,193.716,VALID,21.1266,VALID,344,VALID,0,
2016-09-08, 15:07:04,VALID,920.597,VALID,0,VALID,98.9596,VALID,216.386,VALID,21.1852,VALID,360,VALID,0,
2016-09-08, 15:08:04,VALID,920.621,VALID,0,VALID,96.0627,VALID,222.94,VALID,21.1852,VALID,1,VALID,0,
2016-09-08, 15:09:04,VALID,920.647,VALID,0,VALID,96.6115,VALID,232.718,VALID,21.2632,VALID,8,VALID,0,
2016-09-08, 15:10:04,VALID,920.631,VALID,0,VALID,87.1051,VALID,287.19,VALID,21.3006,VALID,6,VALID,0,
2016-09-08, 15:11:04,VALID,920.66,VALID,0,VALID,87.128,VALID,386.896,VALID,21.3608,VALID,13,VALID,0,
2016-09-08, 15:12:04,VALID,920.657,VALID,0,VALID,84.0024,VALID,365.085,VALID,21.4583,VALID,25,VALID,0,
2016-09-08, 15:13:04,VALID,920.683,VALID,0,VALID,84.4217,VALID,372.821,VALID,21.6908,VALID,17,VALID,0,
2016-09-08, 15:14:04,VALID,920.718,VALID,0,VALID,81.4333,VALID,384.424,VALID,21.9444,VALID,346,VALID,0,
2016-09-08, 15:15:04,VALID,920.708,VALID,0,VALID,80.732,VALID,409.028,VALID,22.1022,VALID,338,VALID,0,
2016-09-08, 15:16:04,VALID,920.712,VALID,0,VALID,81.5401,VALID,427.186,VALID,22.2371,VALID,338,VALID,0,
2016-09-08, 15:17:04,VALID,920.735,VALID,0,VALID,76.1427,VALID,386.896,VALID,22.3933,VALID,333,VALID,0,
2016-09-08, 15:18:04,VALID,920.757,VALID,0,VALID,74.7323,VALID,429.335,VALID,22.5103,VALID,319,VALID,0,
2016-09-08, 15:19:04,VALID,920.746,VALID,0,VALID,75.9673,VALID,428.475,VALID,22.6452,VALID,7,VALID,0,
2016-09-08, 15:20:04,VALID,920.772,VALID,0,VALID,72.331,VALID,420.954,VALID,22.8812,VALID,336,VALID,0,
2016-09-08, 15:21:04,VALID,920.792,VALID,0,VALID,72.7121,VALID,416.012,VALID,22.938,VALID,345,VALID,0.36875,
2016-09-08, 15:22:04,VALID,920.835,VALID,0,VALID,75.1669,VALID,376.689,VALID,22.9787,VALID,303,VALID,0.897656,
2016-09-08, 15:23:04,VALID,920.847,VALID,0,VALID,78.3382,VALID,380.771,VALID,22.9787,VALID,16,VALID,1.50781,
2016-09-08, 15:24:04,VALID,920.884,VALID,0,VALID,76.6306,VALID,289.876,VALID,22.9397,VALID,355,VALID,0.994141,
2016-09-08, 15:25:04,VALID,920.86,VALID,0,VALID,76.6153,VALID,282.14,VALID,22.9007,VALID,314,VALID,0.3375,
2016-09-08, 15:26:04,VALID,920.892,VALID,0,VALID,74.3131,VALID,320.819,VALID,22.8031,VALID,20,VALID,0,
2016-09-08, 15:27:04,VALID,920.907,VALID,0,VALID,74.5341,VALID,295.893,VALID,22.7055,VALID,307,VALID,0,
2016-09-08, 15:28:04,VALID,920.911,VALID,0,VALID,78.079,VALID,240.024,VALID,22.6257,VALID,334,VALID,0,
2016-09-08, 15:29:04,VALID,920.927,VALID,0,VALID,77.0727,VALID,221.436,VALID,22.5867,VALID,316,VALID,0,
2016-09-08, 15:30:04,VALID,920.912,VALID,0,VALID,75.9978,VALID,210.692,VALID,22.4696,VALID,310,VALID,0,
2016-09-08, 15:31:04,VALID,920.961,VALID,0,VALID,78.4297,VALID,208.221,VALID,22.4111,VALID,347,VALID,0,
2016-09-08, 15:32:04,VALID,920.925,VALID,0,VALID,77.8732,VALID,213.056,VALID,22.4696,VALID,344,VALID,1.36602,
2016-09-08, 15:33:04,VALID,920.945,VALID,0,VALID,76.6535,VALID,223.048,VALID,22.4306,VALID,326,VALID,1.41094,
2016-09-08, 15:34:04,VALID,920.951,VALID,0,VALID,77.8579,VALID,246.04,VALID,22.372,VALID,328,VALID,1.07695,
2016-09-08, 15:35:04,VALID,920.965,VALID,0,VALID,77.6674,VALID,243.247,VALID,22.3525,VALID,306,VALID,0.6375,
2016-09-08, 15:36:04,VALID,920.979,VALID,0,VALID,78.7804,VALID,240.883,VALID,22.3525,VALID,326,VALID,0.813281,
2016-09-08, 15:37:04,VALID,920.95,VALID,0,VALID,79.5046,VALID,251.842,VALID,22.372,VALID,349,VALID,0.00585938,
2016-09-08, 15:38:04,VALID,920.97,VALID,0,VALID,78.2467,VALID,252.916,VALID,22.4094,VALID,338,VALID,0,
2016-09-08, 15:39:04,VALID,920.986,VALID,0,VALID,78.5898,VALID,256.784,VALID,22.4501,VALID,333,VALID,0,
2016-09-08, 15:40:04,VALID,921.005,VALID,0,VALID,77.0651,VALID,232.825,VALID,22.4696,VALID,302,VALID,0,
2016-09-08, 15:41:04,VALID,921.009,VALID,0,VALID,77.6521,VALID,228.527,VALID,22.5672,VALID,292,VALID,0,
2016-09-08, 15:42:04,VALID,921.023,VALID,0,VALID,77.3396,VALID,234.007,VALID,22.6435,VALID,305,VALID,0,
2016-09-08, 15:43:04,VALID,921.023,VALID,0,VALID,79.2302,VALID,247.974,VALID,22.7606,VALID,4,VALID,0,
2016-09-08, 15:44:04,VALID,921.012,VALID,0,VALID,78.1324,VALID,269.248,VALID,22.8582,VALID,48,VALID,0,
2016-09-08, 15:45:04,VALID,921.02,VALID,0,VALID,77.7436,VALID,311.257,VALID,22.9167,VALID,44,VALID,0,
2016-09-08, 15:46:04,VALID,921.065,VALID,0,VALID,78.0638,VALID,296.108,VALID,23.0356,VALID,38,VALID,0,
2016-09-08, 15:47:04,VALID,921.058,VALID,0,VALID,75.7615,VALID,304.488,VALID,23.0551,VALID,38,VALID,0,
2016-09-08, 15:48:04,VALID,921.051,VALID,0,VALID,74.4198,VALID,282.678,VALID,23.0746,VALID,317,VALID,0,
2016-09-08, 15:49:04,VALID,921.058,VALID,0,VALID,74.0691,VALID,282.785,VALID,23.0941,INVALID,360,VALID,0,
2016-09-08, 15:50:04,VALID,921.087,VALID,0,VALID,73.4897,VALID,285.579,VALID,23.0356,VALID,264,VALID,0,
2016-09-08, 15:51:04,VALID,921.132,VALID,0,VALID,75.6472,VALID,282.355,VALID,22.938,VALID,265,VALID,0,
2016-09-08, 15:52:04,VALID,921.17,VALID,0,VALID,76.0283,VALID,285.471,VALID,23.016,VALID,1,VALID,0,
2016-09-08, 15:53:04,VALID,921.148,VALID,0,VALID,75.388,VALID,283.645,VALID,23.0941,VALID,301,VALID,0,
2016-09-08, 15:54:04,VALID,921.165,VALID,0,VALID,74.7019,VALID,320.819,VALID,23.1136,VALID,290,VALID,0.0457031,
2016-09-08, 15:55:04,VALID,921.128,VALID,0,VALID,73.6574,VALID,372.391,VALID,22.8209,VALID,260,VALID,1.06562,
2016-09-08, 15:56:04,VALID,921.12,VALID,0,VALID,77.1795,VALID,419.235,VALID,22.6843,VALID,26,VALID,0.298047,
2016-09-08, 15:57:04,VALID,921.124,VALID,0,VALID,76.0436,VALID,430.517,VALID,22.7233,VALID,3,VALID,0,
2016-09-08, 15:58:04,VALID,921.111,VALID,0,VALID,75.3117,VALID,393.235,VALID,22.7623,VALID,272,VALID,0,
2016-09-08, 15:59:04,VALID,921.087,VALID,0,VALID,75.8073,VALID,410.64,VALID,22.8777,VALID,347,VALID,0.277734,
2016-09-08, 16:00:04,VALID,921.083,VALID,0,VALID,77.4082,VALID,411.607,VALID,23.0338,VALID,100,VALID,0,
2016-09-08, 16:01:04,VALID,921.043,VALID,0,VALID,76.2647,VALID,528.073,VALID,23.2307,VALID,38,VALID,0,
2016-09-08, 16:02:04,VALID,921.076,VALID,0,VALID,74.7857,VALID,453.831,VALID,23.3869,VALID,27,VALID,0,
2016-09-08, 16:03:04,VALID,921.021,VALID,0,VALID,72.8036,VALID,364.011,VALID,23.504,VALID,307,VALID,0.0730469,
2016-09-08, 16:04:04,VALID,921.071,VALID,0,VALID,72.9103,VALID,312.331,VALID,23.543,VALID,7,VALID,0,
2016-09-08, 16:05:04,VALID,921.063,VALID,0,VALID,73.3678,VALID,290.521,VALID,23.6193,VALID,26,VALID,0,
2016-09-08, 16:06:04,VALID,921.09,VALID,0,VALID,73.5965,VALID,272.471,VALID,23.6974,VALID,24,VALID,0,
2016-09-08, 16:07:04,VALID,921.105,VALID,0,VALID,73.97,VALID,260.115,VALID,23.795,VALID,24,VALID,0,
2016-09-08, 16:08:04,VALID,921.086,VALID,0,VALID,73.8328,VALID,254.421,VALID,23.9512,VALID,24,VALID,0,
2016-09-08, 16:09:04,VALID,921.117,VALID,0,VALID,73.8328,VALID,256.032,VALID,23.9725,VALID,25,VALID,0,
2016-09-08, 16:10:04,VALID,921.062,VALID,0,VALID,73.8175,VALID,244.751,VALID,23.8536,VALID,29,VALID,0.329688,
2016-09-08, 16:11:04,VALID,921.084,VALID,0,VALID,71.7821,VALID,226.916,VALID,23.7364,VALID,360,VALID,0.163281,
2016-09-08, 16:12:04,VALID,921.09,VALID,0,VALID,73.4897,VALID,225.412,VALID,23.6193,VALID,31,VALID,0,
2016-09-08, 16:13:04,VALID,921.102,VALID,0,VALID,73.8328,VALID,219.287,VALID,23.5998,VALID,31,VALID,0,
2016-09-08, 16:14:04,VALID,921.101,VALID,0,VALID,75.8835,VALID,213.915,VALID,23.5803,VALID,360,VALID,0.0289063,
2016-09-08, 16:15:04,VALID,921.101,VALID,0,VALID,75.9216,VALID,208.114,VALID,23.4632,VALID,25,VALID,1.13242,
2016-09-08, 16:16:04,VALID,921.105,VALID,0,VALID,75.144,VALID,194.039,VALID,23.3638,VALID,8,VALID,0.0515625,
2016-09-08, 16:17:04,VALID,921.115,VALID,0,VALID,76.2723,VALID,179.856,VALID,23.2875,VALID,12,VALID,0,
2016-09-08, 16:18:04,VALID,921.034,VALID,0,VALID,74.1835,VALID,174.807,VALID,23.2077,VALID,358,VALID,1.25508,
2016-09-08, 16:19:04,VALID,921.14,VALID,0,VALID,77.7512,VALID,174.699,VALID,22.993,VALID,2,VALID,0.840625,
2016-09-08, 16:20:04,VALID,921.138,VALID,0,VALID,77.3929,VALID,185.014,VALID,22.8369,VALID,10,VALID,1.08477,
2016-09-08, 16:21:04,VALID,921.137,VALID,0,VALID,78.2925,VALID,200.7,VALID,22.7233,VALID,9,VALID,1.3918,
2016-09-08, 16:22:04,VALID,921.135,VALID,0,VALID,79.5199,VALID,203.171,VALID,22.6045,VALID,28,VALID,0.766797,
2016-09-08, 16:23:04,VALID,921.101,VALID,0,VALID,79.6418,VALID,206.072,VALID,22.585,VALID,25,VALID,1.51797,
2016-09-08, 16:24:04,VALID,921.165,VALID,0,VALID,79.5732,VALID,215.312,VALID,22.6045,VALID,32,VALID,0.261328,
2016-09-08, 16:25:04,VALID,921.155,VALID,0,VALID,78.0943,VALID,228.205,VALID,22.6435,VALID,17,VALID,0.819531,
2016-09-08, 16:26:04,VALID,921.148,VALID,0,VALID,79.6037,VALID,226.164,VALID,22.6435,VALID,12,VALID,0.702344,
2016-09-08, 16:27:04,VALID,921.173,VALID,0,VALID,78.3154,VALID,228.205,VALID,22.624,VALID,24,VALID,1.98828,
2016-09-08, 16:28:04,VALID,921.193,VALID,0,VALID,79.5351,VALID,230.676,VALID,22.6435,VALID,26,VALID,0,
2016-09-08, 16:29:04,VALID,921.202,VALID,0,VALID,79.3903,VALID,224.874,VALID,22.6435,VALID,352,VALID,0.813281,
2016-09-08, 16:30:04,VALID,921.205,VALID,0,VALID,80.5795,VALID,220.147,VALID,22.6435,VALID,12,VALID,0.869141,
2016-09-08, 16:31:04,VALID,921.203,VALID,0,VALID,79.0624,VALID,222.833,VALID,22.624,VALID,15,VALID,0.785547,
2016-09-08, 16:32:04,VALID,921.179,VALID,0,VALID,79.0701,VALID,231.536,VALID,22.624,VALID,352,VALID,0.656641,
2016-09-08, 16:33:04,VALID,921.185,VALID,0,VALID,79.3369,VALID,243.247,VALID,22.5459,VALID,14,VALID,1.675,
2016-09-08, 16:34:04,VALID,921.15,VALID,0,VALID,79.779,VALID,249.908,VALID,22.5264,VALID,23,VALID,0.746484,
2016-09-08, 16:35:04,VALID,921.181,VALID,0,VALID,81.2122,VALID,255.495,VALID,22.5459,VALID,25,VALID,0.707812,
2016-09-08, 16:36:04,VALID,921.177,VALID,0,VALID,79.3598,VALID,265.595,VALID,22.5655,VALID,4,VALID,1.14258,
2016-09-08, 16:37:04,VALID,921.136,VALID,0,VALID,79.5199,VALID,272.793,VALID,22.5264,VALID,335,VALID,0.05625,
2016-09-08, 16:38:04,VALID,921.167,VALID,0,VALID,80.2517,VALID,280.529,VALID,22.4679,VALID,13,VALID,0.729297,
2016-09-08, 16:39:04,VALID,921.172,VALID,0,VALID,81.3266,VALID,291.273,VALID,22.4679,VALID,2,VALID,0.608203,
2016-09-08, 16:40:04,VALID,921.177,VALID,0,VALID,80.4728,VALID,304.596,VALID,22.4874,VALID,353,VALID,1.8125,
2016-09-08, 16:41:04,VALID,921.173,VALID,0,VALID,80.8616,VALID,319.315,VALID,22.4874,VALID,14,VALID,1.26172,
2016-09-08, 16:42:04,VALID,921.219,VALID,0,VALID,82.4167,VALID,337.795,VALID,22.6045,VALID,7,VALID,0.0105469,
2016-09-08, 16:43:04,VALID,921.206,VALID,0,VALID,79.2988,VALID,355.523,VALID,22.8014,VALID,343,VALID,0.00664063,
2016-09-08, 16:44:04,VALID,921.187,VALID,0,VALID,79.3598,VALID,370.565,VALID,22.8972,VALID,23,VALID,1.47461,
2016-09-08, 16:45:04,VALID,921.188,VALID,0,VALID,79.7104,VALID,388.615,VALID,22.9948,VALID,34,VALID,0.538281,
2016-09-08, 16:46:04,VALID,921.231,VALID,0,VALID,80.4118,VALID,396.028,VALID,23.0924,VALID,25,VALID,0.422266,
2016-09-08, 16:47:04,VALID,921.24,VALID,0,VALID,79.5275,VALID,388.507,VALID,23.1704,VALID,348,VALID,0.160156,
2016-09-08, 16:48:04,VALID,921.247,VALID,0,VALID,79.6876,VALID,382.92,VALID,23.2094,VALID,11,VALID,0.38125,
2016-09-08, 16:49:04,VALID,921.251,VALID,0,VALID,79.9086,VALID,395.169,VALID,23.307,VALID,5,VALID,0.028125,
2016-09-08, 16:50:04,VALID,921.267,VALID,0,VALID,78.0943,VALID,376.044,VALID,23.2485,VALID,293,VALID,0,
2016-09-08, 16:51:04,VALID,921.259,VALID,0,VALID,80.1755,VALID,372.713,VALID,23.2875,VALID,15,VALID,0.513672,
2016-09-08, 16:52:04,VALID,921.282,VALID,0,VALID,80.0078,VALID,378.837,VALID,23.3461,VALID,8,VALID,0,
2016-09-08, 16:53:04,VALID,921.259,VALID,0,VALID,78.9024,VALID,391.301,VALID,23.4827,INVALID,360,VALID,0,
2016-09-08, 16:54:04,VALID,921.186,VALID,0,VALID,76.3714,VALID,422.351,VALID,23.6175,VALID,18,VALID,3.40664,
2016-09-08, 16:55:04,VALID,921.221,VALID,0,VALID,78.0333,VALID,430.302,VALID,23.5803,VALID,11,VALID,1.69102,
2016-09-08, 16:56:04,VALID,921.225,VALID,0,VALID,78.0562,VALID,400.755,VALID,23.6193,VALID,33,VALID,2.31445,
2016-09-08, 16:57:04,VALID,921.252,VALID,0,VALID,78.1553,VALID,389.044,VALID,23.6974,VALID,29,VALID,0.0105469,
2016-09-08, 16:58:04,VALID,921.264,VALID,0,VALID,79.0091,VALID,377.441,VALID,23.7133,VALID,35,VALID,1.30391,
2016-09-08, 16:59:04,VALID,921.224,VALID,0,VALID,76.9965,VALID,342.952,VALID,23.6956,VALID,14,VALID,1.70078,
2016-09-08, 17:00:04,VALID,921.238,VALID,0,VALID,78.1476,VALID,370.779,VALID,23.7364,VALID,31,VALID,0.427344,
2016-09-08, 17:01:04,VALID,921.24,VALID,0,VALID,76.6839,VALID,427.293,VALID,23.5998,VALID,13,VALID,1.76563,
2016-09-08, 17:02:04,VALID,921.246,VALID,0,VALID,77.9113,VALID,383.995,VALID,23.4827,VALID,36,VALID,1.03594,
2016-09-08, 17:03:04,VALID,921.277,VALID,0,VALID,77.6826,VALID,393.557,VALID,23.4437,VALID,321,VALID,0.487891,
2016-09-08, 17:04:04,VALID,921.267,VALID,0,VALID,78.4831,VALID,442.013,VALID,23.2467,VALID,330,VALID,0.0691406,
2016-09-08, 17:05:04,VALID,921.265,VALID,0,VALID,80.3661,VALID,480.477,VALID,23.2857,VALID,353,VALID,0.821484,
2016-09-08, 17:06:04,VALID,921.253,VALID,0,VALID,79.0167,VALID,586.091,VALID,23.3833,VALID,16,VALID,0.536328,
2016-09-08, 17:07:04,VALID,921.224,VALID,0,VALID,80.3203,VALID,563.314,VALID,23.4419,VALID,5,VALID,0.102734,
2016-09-08, 17:08:04,VALID,921.215,VALID,0,VALID,79.4207,VALID,527.106,VALID,23.6388,VALID,352,VALID,0.507422,
2016-09-08, 17:09:04,VALID,921.207,VALID,0,VALID,80.0992,VALID,414.293,VALID,23.6938,VALID,24,VALID,2.33359,
2016-09-08, 17:10:04,VALID,921.217,VALID,0,VALID,77.2557,VALID,411.177,VALID,23.7346,VALID,344,VALID,1.70547,
2016-09-08, 17:11:04,VALID,921.227,VALID,0,VALID,78.201,VALID,449.749,VALID,23.7151,VALID,23,VALID,1.48438,
2016-09-08, 17:12:04,VALID,921.244,VALID,0,VALID,78.1705,VALID,324.365,VALID,23.7932,VALID,15,VALID,2.25273,
2016-09-08, 17:13:04,VALID,921.273,VALID,0,VALID,78.1171,VALID,290.736,VALID,23.8145,VALID,12,VALID,1.39063,
2016-09-08, 17:14:04,VALID,921.271,VALID,0,VALID,78.6965,VALID,314.803,VALID,23.8145,VALID,25,VALID,1.31445,
2016-09-08, 17:15:04,VALID,921.213,VALID,0,VALID,78.1934,VALID,351.225,VALID,23.8926,VALID,15,VALID,2.14883,
2016-09-08, 17:16:04,VALID,921.268,VALID,0,VALID,78.0714,VALID,393.02,VALID,23.9902,VALID,6,VALID,0.530078,
2016-09-08, 17:17:04,VALID,921.255,VALID,0,VALID,76.6611,VALID,483.485,VALID,23.9298,VALID,11,VALID,0.903516,
2016-09-08, 17:18:04,VALID,921.272,VALID,0,VALID,80.1069,VALID,515.825,VALID,23.9103,VALID,358,VALID,0.613281,
2016-09-08, 17:19:04,VALID,921.273,VALID,0,VALID,77.8198,VALID,605.968,VALID,24.0079,VALID,48,VALID,0.635938,
2016-09-08, 17:20:04,VALID,921.299,VALID,0,VALID,77.4234,VALID,632.828,VALID,24.1445,VALID,36,VALID,0.0347656,
2016-09-08, 17:21:04,VALID,921.196,VALID,0,VALID,77.1109,VALID,642.928,VALID,24.1055,VALID,10,VALID,3.24492,
2016-09-08, 17:22:04,VALID,921.205,VALID,0,VALID,77.7741,VALID,505.403,VALID,24.0665,VALID,28,VALID,1.68789,
2016-09-08, 17:23:04,VALID,921.186,VALID,0,VALID,78.1019,VALID,457.592,VALID,24.1055,VALID,26,VALID,1.68672,
2016-09-08, 17:24:04,VALID,921.19,VALID,0,VALID,78.666,VALID,463.609,VALID,24.1055,VALID,15,VALID,1.15664,
2016-09-08, 17:25:04,VALID,921.11,VALID,0,VALID,77.5454,VALID,534.95,VALID,24.0842,VALID,28,VALID,1.94609,
2016-09-08, 17:26:04,VALID,921.104,VALID,0,VALID,78.1019,VALID,447.492,VALID,24.1055,VALID,14,VALID,1.13555,
2016-09-08, 17:27:04,VALID,921.141,VALID,0,VALID,76.4552,VALID,635.944,VALID,24.1232,VALID,22,VALID,0.636719,
2016-09-08, 17:28:04,VALID,921.126,VALID,0,VALID,77.6521,VALID,493.692,VALID,23.9689,VALID,37,VALID,0.824219,
2016-09-08, 17:29:04,VALID,921.095,VALID,0,VALID,76.7297,VALID,519.263,VALID,23.9689,VALID,323,VALID,1.93125,
2016-09-08, 17:30:04,VALID,921.109,VALID,0,VALID,79.84,VALID,650.664,VALID,24.0274,VALID,13,VALID,2.7625,
2016-09-08, 17:31:04,VALID,921.068,VALID,0,VALID,78.8719,VALID,711.26,VALID,23.9884,VALID,37,VALID,0.677734,
2016-09-08, 17:32:04,VALID,921.062,VALID,0,VALID,78.4526,VALID,614.993,VALID,24.1836,VALID,7,VALID,1.42813,
2016-09-08, 17:33:04,VALID,921.055,VALID,0,VALID,76.6382,VALID,531.404,VALID,24.416,VALID,52,VALID,0.883203,
2016-09-08, 17:34:04,VALID,921,VALID,0,VALID,75.7691,VALID,491.973,VALID,24.5331,VALID,20,VALID,1.81211,
2016-09-08, 17:35:04,VALID,921.073,VALID,0,VALID,75.7463,VALID,495.304,VALID,24.5722,VALID,241,VALID,0.00351562,
2016-09-08, 17:36:04,VALID,921.039,VALID,0,VALID,74.7933,VALID,689.772,VALID,24.7479,VALID,17,VALID,0.825,
2016-09-08, 17:37:04,VALID,921.075,VALID,0,VALID,75.3041,VALID,632.936,VALID,24.8845,VALID,131,VALID,0.605469,
2016-09-08, 17:38:04,VALID,920.965,VALID,0,VALID,73.5507,VALID,584.05,VALID,24.7088,VALID,3,VALID,1.8332,
2016-09-08, 17:39:04,VALID,920.979,VALID,0,VALID,76.1656,VALID,601.241,VALID,24.5526,VALID,22,VALID,1.51992,
2016-09-08, 17:40:04,VALID,920.974,VALID,0,VALID,76.2189,VALID,486.923,VALID,24.4941,VALID,32,VALID,1.02383,
2016-09-08, 17:41:04,VALID,920.972,VALID,0,VALID,76.623,VALID,538.173,VALID,24.3574,VALID,13,VALID,1.54258,
2016-09-08, 17:42:04,VALID,920.971,VALID,0,VALID,76.3409,VALID,531.619,VALID,24.2793,VALID,360,VALID,2.00078,
2016-09-08, 17:43:04,VALID,921.004,VALID,0,VALID,77.0956,VALID,445.129,VALID,24.1427,VALID,29,VALID,1.1625,
2016-09-08, 17:44:04,VALID,920.855,VALID,0,VALID,77.3091,VALID,434.17,VALID,24.0646,VALID,35,VALID,2.62266,
2016-09-08, 17:45:04,VALID,920.895,VALID,0,VALID,75.8377,VALID,439.542,VALID,23.9866,VALID,309,VALID,1.95625,
2016-09-08, 17:46:04,VALID,920.858,VALID,0,VALID,76.7144,VALID,452.327,VALID,23.8127,VALID,19,VALID,1.56055,
2016-09-08, 17:47:04,VALID,920.99,VALID,0,VALID,78.5669,VALID,479.832,VALID,23.6938,VALID,50,VALID,0.841406,
2016-09-08, 17:48:04,VALID,920.958,VALID,0,VALID,78.6432,VALID,513.354,VALID,23.7932,VALID,25,VALID,2.36797,
2016-09-08, 17:49:04,VALID,920.929,VALID,0,VALID,78.6432,VALID,476.501,VALID,23.8908,VALID,10,VALID,2.26992,
2016-09-08, 17:50:04,VALID,920.943,VALID,0,VALID,78.6127,VALID,504.651,VALID,23.967,VALID,26,VALID,0.652344,
2016-09-08, 17:51:04,VALID,920.958,VALID,0,VALID,78.1095,VALID,591.893,VALID,24.1232,VALID,1,VALID,1.15625,
2016-09-08, 17:52:04,VALID,920.905,VALID,0,VALID,74.9001,VALID,622.084,VALID,24.1817,VALID,328,VALID,0.914453,
2016-09-08, 17:53:04,VALID,920.911,VALID,0,VALID,77.21,VALID,458.022,VALID,24.1641,VALID,2,VALID,0.686719,
2016-09-08, 17:54:04,VALID,920.897,VALID,0,VALID,78.4907,VALID,636.374,VALID,24.3202,VALID,24,VALID,0.721094,
2016-09-08, 17:55:04,VALID,920.919,VALID,0,VALID,77.8427,VALID,479.617,VALID,24.4959,VALID,358,VALID,1.28945,
2016-09-08, 17:56:04,VALID,920.906,VALID,0,VALID,77.431,VALID,540.429,VALID,24.5331,VALID,12,VALID,1.13633,
2016-09-08, 17:57:04,VALID,920.896,VALID,0,VALID,76.4781,VALID,415.153,VALID,24.574,VALID,329,VALID,0.0078125,
2016-09-08, 17:58:04,VALID,920.95,VALID,0,VALID,76.2647,VALID,376.796,VALID,24.535,VALID,228,VALID,0.708984,
2016-09-08, 17:59:04,VALID,920.934,VALID,0,VALID,77.0117,VALID,376.474,VALID,24.3398,VALID,23,VALID,1.82578,